Theta_e
315 313 313 313 313 312 312 311 311 310 311 312 310 312 316 317 307 304 312 317 313 314 316 317 320 321 321 320 323 327 330 335 341 341 342 342 343 345 346 346 347 347 347 349 350 349 348 348 348 348 346 346 348 349 343 344 341 341 344 344 343 341 339 339 339 340 338 337 337 336 336 336 336 336 336 336 335 335 334 334 333 334 336 336 338 340 342
312 312 311 313 311 311 311 311 312 312 311 311 311 312 314 315 315 315 317 317 316 316 317 319 320 322 321 324 329 329 329 328 336 339 340 340 341 342 343 345 346 347 348 349 349 350 349 348 348 347 347 348 348 346 342 342 344 342 344 345 344 341 339 339 340 340 338 338 337 337 336 336 337 337 336 335 333 333 333 332 333 335 338 339 339 339 338
310 311 312 312 312 311 309 311 312 312 312 311 312 312 313 315 314 314 314 315 314 318 322 324 323 323 325 329 326 324 328 329 331 335 336 339 340 341 343 345 345 347 348 349 350 349 349 348 349 346 347 348 348 340 339 339 342 343 343 344 343 342 340 340 340 340 339 338 338 336 337 336 337 338 338 335 334 333 333 334 336 338 339 338 337 337 338
308 310 310 310 312 311 310 311 311 311 310 309 311 311 315 313 313 315 314 312 311 316 320 323 324 323 325 323 325 327 330 331 331 333 335 337 339 340 342 343 345 346 346 348 348 348 348 348 347 346 347 347 346 340 340 339 339 341 343 343 341 342 341 341 341 340 338 338 337 336 336 337 338 339 339 335 334 334 333 333 335 336 335 336 338 339 340
307 310 311 310 309 309 307 308 310 312 312 313 314 315 317 316 314 312 309 309 316 319 321 318 318 318 320 323 328 329 331 334 333 333 335 337 339 340 341 342 343 345 345 347 348 347 347 345 345 346 348 345 344 342 342 342 342 340 342 340 341 341 340 340 341 340 339 337 336 336 337 337 339 340 340 335 333 332 331 333 334 334 335 335 336 338 339
308 309 310 311 307 300 302 319 316 315 312 312 311 311 315 317 317 313 315 315 318 318 317 317 318 319 322 326 331 336 331 329 335 335 335 337 339 340 341 342 343 345 346 347 347 347 346 346 343 343 344 343 343 343 342 343 341 343 342 340 340 339 340 340 340 340 339 337 336 336 337 338 339 340 338 333 333 332 331 333 333 333 334 334 337 338 336
307 311 311 304 299 301 320 318 319 319 316 315 314 314 315 315 317 316 315 316 318 319 319 319 321 326 330 332 332 332 333 333 332 334 335 337 339 340 341 342 343 345 347 348 346 344 345 341 341 343 344 346 345 342 341 339 341 344 342 340 339 339 339 340 340 339 338 337 337 337 338 339 341 339 335 333 333 332 331 331 331 332 333 334 335 335 334
312 308 306 297 300 315 315 317 318 320 318 319 316 313 316 316 316 319 317 317 318 319 319 320 328 331 331 331 334 335 336 335 334 332 334 337 338 339 340 342 343 346 346 345 345 346 343 342 342 342 345 342 338 339 339 338 341 341 340 339 338 339 339 339 339 339 337 337 338 339 339 340 339 336 333 332 332 333 334 332 333 333 334 334 335 336 335
304 305 304 304 313 311 313 312 315 315 314 314 312 308 312 318 318 318 318 318 319 318 319 323 329 331 329 328 329 338 336 336 335 334 336 335 338 340 342 343 344 349 348 347 347 349 347 346 344 339 341 340 339 338 337 337 339 337 336 337 338 338 338 338 337 337 337 336 336 337 337 337 338 335 331 331 331 333 333 332 330 329 330 329 332 334 334
310 305 303 304 303 301 307 316 318 320 319 320 319 314 310 319 319 319 318 318 319 319 319 327 330 331 326 316 318 333 332 333 334 335 336 336 339 340 341 345 347 349 348 347 350 346 346 346 343 343 342 340 340 339 337 337 335 334 334 336 337 337 337 337 338 338 338 337 336 335 336 336 335 333 330 331 332 335 332 330 329 329 328 330 332 333 331
309 306 301 301 299 304 312 315 319 320 322 318 319 311 306 316 319 320 318 317 319 319 319 332 330 322 313 314 322 329 334 332 333 334 335 336 338 341 343 344 346 346 347 349 347 348 348 345 344 346 346 341 340 339 338 336 334 333 334 336 336 336 337 337 338 338 337 337 336 335 335 334 334 332 332 332 333 336 334 330 330 332 330 330 331 333 330
307 306 303 301 306 305 315 318 316 317 320 320 315 302 303 316 319 318 319 318 318 320 323 331 327 319 311 314 326 331 334 335 334 338 338 339 340 342 345 346 348 349 350 349 349 348 346 346 348 348 347 342 340 338 336 336 334 333 335 337 337 337 337 337 339 339 338 338 338 336 335 335 336 335 337 335 334 335 333 330 329 330 330 330 329 329 330
306 305 304 306 308 317 318 316 316 317 319 316 305 298 308 319 320 320 321 319 320 322 330 329 320 325 327 334 333 335 334 334 335 338 339 340 342 343 342 342 345 347 348 348 346 347 347 349 347 348 347 344 340 340 340 338 335 335 338 339 338 338 340 339 339 339 339 337 337 336 336 335 338 338 336 333 333 333 330 330 332 332 331 330 329 330 330
305 307 304 303 308 318 318 317 316 318 313 304 303 321 325 323 320 324 322 320 322 323 329 329 324 326 334 333 333 334 334 336 337 337 338 339 339 341 342 344 344 346 345 346 347 345 349 350 349 350 350 348 345 344 341 339 339 338 340 340 341 344 343 341 340 338 338 338 338 336 337 342 340 337 335 335 332 332 331 332 332 331 332 330 329 328 329
308 310 306 301 296 317 316 316 316 317 309 310 322 325 326 324 326 323 325 325 324 327 329 332 332 332 328 329 332 334 336 337 336 337 337 339 339 339 341 342 343 342 343 343 343 344 343 345 349 350 349 347 346 345 343 344 342 340 342 344 348 345 342 339 339 338 338 337 337 338 340 341 337 335 335 334 332 333 332 332 330 330 330 331 329 327 327
304 305 301 300 312 315 318 317 312 318 318 328 329 326 321 325 324 325 326 326 329 333 334 333 333 332 333 336 338 338 337 337 338 339 340 341 340 340 337 338 341 339 342 344 343 344 340 343 347 348 346 345 345 344 344 346 346 346 349 349 346 341 339 337 336 335 335 337 339 340 339 338 336 335 334 334 332 333 332 330 329 328 329 330 329 327 326
309 307 310 317 320 320 320 320 320 321 323 324 324 325 323 322 322 327 327 328 330 337 335 335 334 331 333 335 337 338 337 338 338 340 340 339 339 338 337 334 340 340 339 342 343 344 347 348 348 347 346 344 344 342 345 347 349 349 348 344 339 337 336 335 335 335 335 336 336 337 338 336 335 333 332 332 330 332 331 329 329 328 328 328 326 327 326
318 317 320 317 319 319 320 320 322 320 321 322 323 323 324 326 326 327 326 328 328 335 336 332 332 330 334 337 337 337 338 339 341 341 341 341 341 341 341 342 341 341 342 343 343 344 346 346 345 344 345 343 342 343 345 347 350 346 342 339 336 335 335 334 334 335 333 332 335 336 336 334 333 332 332 330 328 328 328 327 328 328 327 327 327 328 327
307 303 317 317 316 318 319 319 321 321 321 322 323 326 327 328 329 329 331 331 332 334 335 333 332 331 334 336 338 340 340 339 339 339 339 340 340 339 338 342 341 339 338 336 337 337 338 343 343 339 341 342 343 343 345 347 343 341 339 337 335 335 333 332 335 334 332 328 327 331 335 333 331 331 330 329 328 327 327 326 326 326 327 328 327 327 327
309 311 316 316 316 319 320 319 318 317 318 321 324 324 327 331 331 331 332 334 333 334 333 333 332 333 333 333 336 336 337 337 338 339 339 340 339 340 343 343 339 338 338 336 336 338 339 342 343 341 338 339 342 343 342 337 337 339 336 334 332 334 334 332 331 331 331 326 326 327 329 330 327 327 330 330 328 327 326 327 327 326 327 326 326 327 325
312 314 315 316 317 318 320 319 320 318 316 318 322 325 325 327 328 329 331 332 334 333 332 334 335 331 332 334 332 328 332 334 334 335 336 340 342 341 341 340 342 343 343 342 341 338 340 339 338 339 339 337 338 342 338 336 340 334 333 333 332 333 332 331 330 330 328 330 330 328 328 330 329 330 332 331 329 330 326 326 326 325 325 325 326 325 323
307 309 312 314 309 310 316 318 317 316 318 321 323 325 325 326 328 330 330 331 334 332 334 335 332 332 334 332 331 326 329 332 336 338 340 340 340 340 341 343 343 342 341 340 339 338 338 337 337 337 338 338 336 334 336 338 337 334 335 330 329 328 329 328 327 327 328 326 328 327 326 325 328 328 309 301 311 328 323 310 303 300 305 320 317 321 323
307 312 314 317 316 315 317 316 316 317 320 321 320 322 324 325 329 330 331 330 331 332 333 332 331 333 333 332 330 328 329 337 340 339 338 337 336 337 338 339 338 338 338 337 338 337 336 336 336 335 335 335 336 334 337 337 335 336 335 331 328 327 328 326 326 328 326 326 328 330 329 326 325 325 326 317 299 299 307 307 301 296 295 296 298 303 315
312 314 315 315 315 311 314 315 317 317 323 324 319 320 321 324 326 329 331 332 331 331 332 333 333 332 332 333 330 328 333 333 336 336 337 337 336 335 334 334 336 335 334 335 335 335 335 335 334 335 333 335 335 334 336 335 335 336 334 331 328 327 327 328 331 330 326 326 327 325 326 327 327 325 325 319 315 300 297 300 299 296 295 295 295 297 298
310 314 314 315 314 314 315 317 320 321 325 320 318 318 319 322 324 327 328 331 333 331 330 329 334 332 331 328 329 334 334 335 336 336 336 335 335 331 330 331 333 334 334 333 334 334 334 334 334 333 334 335 336 332 336 335 335 335 334 332 329 327 328 328 326 327 325 326 327 327 326 327 327 326 325 320 315 313 310 298 297 296 295 295 295 295 295
313 313 314 314 315 314 316 317 318 319 318 319 318 319 321 323 326 328 329 331 331 330 328 326 329 334 330 331 334 334 333 332 333 333 330 329 329 329 329 332 333 334 334 334 334 333 332 332 331 331 331 331 335 336 332 336 335 334 332 331 330 327 326 327 327 327 328 329 328 328 329 330 330 329 327 323 320 317 315 314 312 304 298 296 298 298 296
311 312 311 310 310 312 315 314 312 317 317 319 319 321 321 322 327 329 328 331 329 327 326 327 329 335 334 332 332 330 332 332 332 332 331 330 327 329 331 333 333 333 333 333 333 331 330 331 331 331 332 333 335 334 334 334 334 332 331 330 329 327 322 325 328 329 330 330 328 329 328 329 328 327 326 327 324 321 318 318 318 318 316 312 303 300 309
310 312 312 307 307 310 313 316 318 318 318 319 320 319 321 321 323 324 323 326 329 327 327 327 329 331 332 332 332 331 329 329 327 330 330 329 330 331 333 333 333 332 331 330 330 329 329 329 328 329 331 334 334 334 333 333 332 330 329 330 329 331 332 328 329 330 328 327 328 328 328 327 327 325 324 322 321 321 319 320 319 319 318 318 317 306 302
311 312 314 315 315 316 317 317 317 317 318 319 320 320 319 320 319 320 321 323 326 329 329 328 329 330 330 330 329 328 326 327 330 330 331 331 330 330 331 331 331 328 329 328 328 330 330 330 329 330 331 332 331 332 331 331 331 331 331 330 331 330 331 331 329 328 326 326 328 328 323 324 323 323 322 321 321 320 319 318 318 318 318 318 318 317 314
312 314 314 315 315 315 315 314 314 316 315 317 317 317 318 318 319 319 321 322 324 325 326 329 330 328 326 327 329 327 327 329 332 331 329 329 329 330 329 329 328 328 328 328 329 330 331 330 330 329 329 329 329 332 330 332 332 333 332 330 330 330 332 330 328 326 326 326 323 321 323 324 325 324 322 320 317 317 314 313 314 315 316 315 313 313 311
313 315 314 314 314 315 314 314 316 316 316 316 317 317 317 318 319 320 321 323 327 326 328 329 327 328 327 326 329 330 330 330 330 330 329 329 329 330 329 329 325 325 327 328 329 330 330 330 328 328 330 329 328 330 330 330 331 330 330 330 328 319 318 321 323 327 325 323 322 321 321 320 319 319 317 315 314 313 312 313 312 311 311 311 311 310 309
312 312 313 313 313 314 315 316 316 316 317 317 316 315 317 317 317 319 322 321 324 326 330 329 329 329 329 330 329 329 330 330 330 329 329 329 329 330 331 330 330 328 329 329 329 328 329 328 327 328 332 330 329 330 330 331 331 329 326 325 326 326 322 320 322 322 322 321 320 319 319 319 318 317 316 314 313 313 314 311 310 309 308 308 308 307 307
312 311 311 313 313 314 314 315 314 314 315 316 316 316 317 318 318 317 320 323 321 325 328 329 329 331 330 329 329 329 329 329 328 328 328 328 328 328 329 329 329 329 329 328 328 328 327 327 328 329 330 330 328 328 329 329 329 328 327 325 324 324 322 320 320 321 321 320 319 318 318 318 316 315 314 313 313 313 311 309 308 307 307 306 306 306 304
313 314 315 317 317 315 314 315 316 316 317 317 317 316 316 318 318 319 321 326 323 323 325 328 330 328 327 327 327 326 325 326 325 325 325 326 326 326 327 326 327 326 326 326 326 327 327 327 328 328 328 327 327 327 327 327 328 327 326 324 323 321 321 320 320 320 318 318 317 317 316 316 315 313 313 312 311 310 309 309 308 307 306 306 305 305 301
319 319 320 319 320 319 318 317 317 317 317 317 317 317 317 319 323 322 324 325 324 325 329 328 326 326 325 324 324 325 326 326 325 325 325 325 324 325 325 324 324 325 324 324 325 326 327 328 328 328 326 325 325 325 326 326 326 325 323 322 322 320 320 320 318 317 317 316 317 315 314 314 314 312 311 313 313 311 310 309 308 308 307 306 306 304 303
317 318 319 319 319 320 319 319 319 319 319 319 319 319 318 319 323 324 324 324 324 327 326 325 325 323 324 325 325 324 324 325 325 325 324 323 323 323 323 323 323 322 322 322 324 324 326 326 321 322 324 324 323 324 325 324 325 322 321 320 320 319 319 318 318 317 316 316 314 314 314 313 312 312 312 311 310 310 309 308 308 307 306 306 306 305 304
317 318 318 319 319 320 320 320 321 321 321 321 321 321 321 322 323 325 325 325 325 325 324 323 323 322 322 324 323 324 325 324 323 323 322 322 323 323 322 322 322 321 320 319 320 322 323 323 320 319 322 323 322 324 322 320 324 321 321 320 320 319 317 317 316 316 315 314 313 313 311 311 312 311 310 309 308 308 307 306 306 305 305 305 305 304 303
317 317 319 319 319 319 319 320 321 321 320 321 322 322 323 323 324 325 324 324 324 324 325 324 322 324 324 324 323 321 322 322 322 322 322 322 323 321 321 320 319 319 318 318 321 321 321 321 320 320 321 322 322 321 320 317 318 319 318 317 317 316 316 316 314 313 313 313 313 312 312 311 310 309 309 309 308 307 306 306 305 304 304 304 304 303 303
317 318 318 318 319 320 321 321 322 322 321 320 321 323 324 325 325 324 323 322 324 324 323 323 323 323 322 322 321 321 321 321 321 320 321 321 321 320 318 318 318 318 319 321 320 319 319 320 322 320 320 319 320 318 317 315 315 318 317 317 316 314 313 312 312 311 311 312 311 311 311 309 309 308 307 307 307 306 305 304 304 304 304 303 303 303 304
317 317 318 317 318 319 318 319 320 322 322 322 323 323 324 323 322 322 323 322 323 323 322 322 321 320 320 320 320 319 320 320 320 320 320 320 319 318 317 318 319 320 320 318 320 319 318 317 318 318 318 318 317 317 315 313 313 316 316 314 314 313 313 312 312 311 311 311 309 307 309 308 308 307 306 305 304 304 303 303 303 303 303 303 302 302 302
316 317 317 317 317 318 317 317 318 321 321 323 323 324 324 324 324 322 320 321 322 323 323 322 320 319 318 318 317 317 320 319 319 319 320 320 317 316 314 313 317 318 318 318 319 318 318 317 317 316 316 316 315 313 313 311 314 315 314 314 313 313 312 311 311 310 310 309 309 308 308 307 305 305 305 304 304 304 303 303 303 302 302 302 301 301 301
316 317 317 317 317 317 318 318 318 318 320 321 322 323 322 322 321 319 320 321 322 322 322 320 318 320 320 319 317 317 318 318 318 318 318 318 316 315 313 314 317 317 318 317 317 316 316 315 316 315 316 315 313 311 311 313 313 313 313 313 312 312 312 311 309 309 309 309 308 307 307 306 305 305 303 304 303 303 303 302 302 302 302 302 302 302 301
319 320 320 319 319 320 319 319 320 320 320 321 320 320 320 321 320 319 318 318 319 320 320 320 319 318 318 318 317 317 317 317 317 317 317 317 318 318 316 316 317 317 316 316 317 316 315 316 315 314 312 312 311 309 309 311 311 311 311 311 310 310 309 308 308 308 307 306 306 306 306 305 304 304 303 303 303 302 302 302 301 301 301 301 301 301 301
319 319 319 320 320 321 320 320 320 320 319 319 321 322 321 321 321 320 319 319 318 318 319 318 318 317 318 318 316 315 314 315 315 316 315 314 315 317 318 316 316 316 315 314 315 314 314 313 311 309 308 307 307 306 309 309 309 310 310 310 309 308 307 307 306 306 306 305 305 304 305 304 303 304 303 302 301 301 302 301 301 301 301 301 301 300 300
319 319 319 320 318 318 318 319 319 319 319 320 321 321 320 320 320 320 320 320 319 318 319 319 318 317 318 317 316 315 316 316 316 315 313 312 311 312 316 316 314 313 313 313 313 312 312 311 308 307 306 305 305 305 308 308 308 308 308 308 308 307 306 306 306 306 305 305 306 304 304 303 302 303 303 303 301 301 301 301 301 301 300 300 300 300 299
317 319 318 315 315 315 317 317 319 319 318 317 317 318 320 321 320 320 321 320 320 319 319 319 318 318 318 317 317 316 316 316 316 317 316 315 313 314 316 314 314 313 311 312 312 311 310 309 308 306 305 304 304 306 306 306 306 306 307 307 307 306 305 305 305 305 304 304 303 303 303 302 302 302 302 302 301 302 301 301 300 300 301 300 300 300 299
316 316 316 316 318 317 317 317 318 317 317 316 315 315 318 318 319 320 321 321 321 319 319 319 318 319 319 318 317 316 314 313 315 317 317 316 316 315 314 313 312 311 310 311 310 310 308 307 307 305 304 303 303 306 305 305 305 305 305 306 306 305 305 305 304 304 304 303 304 303 302 302 303 302 302 300 301 301 300 300 300 299 299 299 299 298 298
314 315 317 318 318 317 317 317 316 315 314 315 316 316 317 320 321 321 322 322 321 320 319 319 319 319 319 318 318 317 316 315 311 313 315 314 313 314 313 312 311 310 310 309 308 310 309 308 306 305 303 303 306 305 305 304 303 304 304 305 306 304 304 304 304 303 303 302 302 302 301 301 301 302 301 302 302 301 301 300 300 300 300 299 300 299 298
316 315 316 317 318 318 317 317 316 315 316 317 317 319 320 321 322 321 321 321 321 320 319 319 318 319 318 318 318 317 317 317 315 312 314 314 314 313 313 312 311 310 310 310 310 310 309 307 305 304 304 305 305 305 304 304 303 303 303 303 303 303 303 303 303 303 302 302 302 301 302 301 302 302 301 300 300 300 300 300 300 301 301 300 299 299 299
317 316 316 315 316 318 319 316 316 318 320 321 321 321 322 321 319 319 320 320 320 318 319 318 319 319 319 318 318 318 317 317 316 316 315 315 314 314 313 312 312 310 310 311 310 310 309 307 306 304 305 307 306 304 304 303 303 303 303 302 302 303 303 302 301 300 302 302 302 301 301 301 301 300 300 300 300 300 300 300 299 297 294 297 299 299 298
317 316 318 318 318 319 320 321 320 320 320 321 322 321 321 319 318 318 319 319 319 317 316 317 318 319 319 319 318 318 318 317 316 315 314 314 315 313 313 313 311 309 311 309 309 310 308 307 307 306 305 305 306 305 304 304 303 302 301 302 302 303 302 300 301 301 301 301 301 300 301 300 300 300 300 300 299 299 299 298 298 298 297 297 298 299 299
314 316 317 318 318 319 320 320 321 322 321 320 320 319 320 318 319 318 319 318 318 316 315 315 315 318 319 318 317 317 318 317 315 314 313 313 313 312 312 311 310 309 309 309 309 309 308 308 307 306 306 305 305 305 302 300 301 302 302 302 301 301 302 302 301 301 301 300 300 300 299 300 300 299 300 299 299 300 299 299 299 299 299 299 299 300 299
Wind_Speed
7 3 4 5 9 12 12 14 14 16 16 15 16 15 8 8 10 9 3 4 7 10 12 9 7 8 9 10 9 8 7 6 7 9 10 11 12 12 14 15 15 16 16 15 15 15 14 14 13 12 10 10 9 9 9 8 7 7 6 7 7 7 7 7 7 7 6 6 6 6 6 7 7 8 8 8 9 9 9 9 9 10 10 10 10 10 9
8 5 6 6 11 9 11 13 13 14 15 16 16 14 9 9 8 7 3 5 9 13 13 11 10 8 9 8 7 7 9 9 8 9 11 12 12 14 15 16 16 15 16 16 16 15 15 14 13 12 10 10 10 10 9 9 7 6 6 7 8 7 7 7 7 7 7 7 6 6 6 7 7 8 8 8 8 8 9 9 9 9 9 9 9 9 9
7 6 5 7 10 10 12 11 12 13 13 13 13 10 6 5 7 7 7 8 11 10 7 5 6 6 6 7 10 12 9 8 9 11 12 12 13 14 14 14 16 16 16 16 16 16 15 15 14 11 10 10 10 11 10 9 8 7 8 8 8 8 8 8 7 7 7 7 7 8 7 7 8 8 8 8 7 8 9 9 9 8 8 9 9 8 8
7 6 8 8 8 10 10 10 10 11 12 12 9 8 8 8 7 6 7 9 9 8 4 3 6 8 9 11 12 10 7 7 8 11 11 11 12 13 14 15 15 15 16 17 17 17 16 14 13 12 10 10 10 11 10 8 8 8 9 9 9 8 8 8 7 8 8 8 8 8 8 9 9 9 8 8 8 9 9 9 8 8 8 8 8 8 6
8 9 7 10 9 9 9 11 12 13 12 9 8 7 6 7 6 7 8 9 6 6 6 11 11 11 11 11 9 9 7 6 8 9 10 10 11 12 13 15 16 17 18 18 17 16 14 13 12 12 12 11 11 11 10 8 7 8 9 9 8 8 8 8 8 8 8 8 9 9 9 9 9 9 8 8 9 9 9 8 8 8 8 9 8 7 6
5 10 9 8 9 12 9 1 9 13 11 10 10 9 8 8 7 6 7 8 8 8 9 10 10 11 10 9 8 5 6 6 6 8 9 9 9 11 12 14 15 15 13 13 14 15 15 14 14 13 13 12 11 10 10 9 9 9 9 8 8 8 8 8 8 8 8 9 9 9 9 9 9 8 7 9 9 8 8 7 8 8 9 9 8 7 7
7 6 7 9 13 11 4 3 5 1 6 10 10 7 7 7 9 10 11 10 10 10 10 10 10 9 8 8 9 9 7 7 7 7 7 8 9 10 11 12 13 14 14 13 14 14 14 14 13 12 11 11 10 10 10 10 10 10 9 9 8 8 8 8 8 8 8 8 9 9 8 9 8 7 8 8 8 7 7 8 8 8 8 9 8 8 8
4 7 9 11 9 5 4 5 5 5 3 2 5 7 7 7 8 10 11 10 11 10 10 9 5 5 7 8 9 9 9 9 8 7 6 7 8 9 9 11 12 13 14 15 15 14 12 13 13 13 13 12 12 11 11 11 10 10 9 9 9 8 8 8 8 8 8 8 8 8 8 8 8 7 8 7 7 7 7 7 7 7 8 8 9 8 8
10 9 10 10 6 5 6 4 5 8 6 9 9 8 9 9 9 9 9 10 9 9 8 6 3 3 5 8 6 7 8 7 7 6 5 5 7 8 8 10 12 12 13 13 14 12 12 12 12 13 13 13 12 12 12 12 11 11 10 10 10 9 9 8 8 7 7 7 8 8 8 8 8 7 7 7 7 6 6 7 8 8 8 8 7 8 9
9 10 10 11 11 13 8 5 5 10 3 5 4 3 7 5 8 6 7 9 8 9 7 3 2 2 6 8 4 6 6 5 6 5 4 4 5 7 9 10 11 12 12 12 12 13 14 14 14 13 13 13 13 12 12 12 12 11 11 11 10 9 8 8 7 6 6 7 7 7 7 7 7 7 7 7 7 6 7 7 8 9 10 10 11 11 11
7 10 11 11 13 9 5 9 6 6 2 4 6 5 9 4 7 6 6 8 8 7 6 4 4 5 6 7 4 4 5 5 6 6 5 5 6 8 9 11 12 14 12 13 13 13 12 13 14 13 13 15 13 13 13 13 13 12 12 11 10 9 8 7 6 6 6 6 7 7 7 8 7 7 6 6 6 6 8 9 8 8 9 7 8 8 13
10 10 11 12 8 7 5 9 7 6 5 5 4 10 8 2 3 2 4 7 7 7 5 4 5 6 6 5 5 5 6 5 5 5 6 5 7 7 8 9 11 12 12 11 10 11 12 14 14 15 14 14 15 14 14 13 13 13 12 10 10 9 8 6 6 6 6 6 6 7 8 7 7 3 2 2 3 2 3 5 5 6 6 7 9 7 10
11 11 12 8 8 4 6 6 6 6 6 5 8 10 6 2 3 3 4 7 7 6 6 6 7 7 4 4 4 4 7 7 6 5 6 6 6 7 8 9 10 10 10 11 12 13 12 13 13 13 12 13 14 13 12 12 14 12 10 9 9 8 6 6 5 6 5 6 7 7 7 7 4 2 3 4 3 2 3 3 4 4 6 5 6 6 8
12 11 11 11 7 4 5 5 4 8 6 8 11 3 4 4 3 1 5 8 7 6 8 7 8 3 4 3 4 6 7 7 7 6 7 6 7 6 6 9 9 8 9 9 10 12 10 8 8 8 10 10 10 10 11 13 13 10 9 9 8 7 6 5 5 5 5 6 6 6 6 4 5 4 3 4 4 4 4 4 4 4 5 5 6 7 8
7 7 10 5 8 4 1 9 5 2 9 4 5 4 5 5 5 5 5 7 9 8 8 9 7 3 4 5 6 7 8 8 8 7 8 7 7 7 7 6 7 6 6 8 10 11 10 8 6 7 8 9 9 9 11 13 11 10 9 8 6 5 5 5 4 4 5 6 6 4 4 5 6 5 5 6 6 4 4 4 4 5 5 6 7 8 7
8 8 7 3 4 7 3 2 2 3 3 4 3 7 8 8 7 6 6 6 7 7 8 6 6 4 3 3 5 7 8 8 8 7 7 6 6 5 6 6 7 8 7 6 7 7 8 6 5 6 7 8 9 9 12 9 9 9 8 7 5 4 4 5 4 3 4 4 4 4 5 6 7 7 6 5 5 4 4 5 5 6 6 6 7 8 7
6 4 2 7 2 3 2 2 3 5 7 7 8 8 9 10 10 7 7 8 8 6 6 6 6 6 5 5 6 6 8 8 8 8 7 6 6 5 5 5 6 7 7 7 6 5 3 4 3 4 5 7 9 11 9 7 7 7 6 6 5 5 5 4 3 2 2 3 3 4 5 5 6 6 6 6 5 4 4 5 5 6 6 7 7 7 7
1 1 4 1 1 2 3 2 4 7 8 7 8 8 9 9 11 9 10 9 9 6 6 7 7 7 6 7 6 6 7 7 7 7 7 6 5 5 5 5 4 3 3 3 3 4 3 3 3 4 5 6 9 10 8 8 8 8 7 7 5 5 4 3 2 1 2 3 3 3 4 5 6 6 6 6 6 5 5 6 6 6 7 7 7 7 6
2 2 4 1 3 3 2 4 5 5 7 8 8 8 9 10 10 10 9 8 7 7 7 9 9 8 8 8 6 6 6 6 6 7 6 6 5 5 4 4 4 2 2 3 4 5 5 4 4 5 7 7 8 8 8 7 7 8 7 6 5 5 4 3 2 1 1 2 3 3 5 5 5 5 5 6 6 6 6 6 6 6 6 7 7 7 6
6 2 3 3 5 2 3 4 6 8 11 12 11 9 9 10 10 9 9 6 7 6 8 9 10 9 9 8 7 7 7 7 7 6 6 6 5 4 4 4 2 2 2 3 2 2 1 1 0 2 3 5 6 6 7 9 7 7 6 6 5 4 4 3 2 2 2 3 4 5 4 4 5 5 5 6 6 7 6 5 5 5 6 6 7 6 7
2 2 2 6 5 2 7 4 8 10 11 13 14 13 11 10 10 9 7 7 6 7 7 9 9 9 8 9 9 10 8 8 7 7 6 6 6 6 6 5 4 3 3 3 4 3 3 3 2 1 0 2 1 4 3 4 6 6 5 5 4 4 4 3 3 3 4 5 5 4 4 4 6 3 4 4 5 3 7 5 4 4 5 6 4 5 5
7 3 3 7 4 4 1 8 11 14 14 14 14 12 11 10 9 7 7 6 6 7 7 8 9 10 8 8 9 9 9 8 8 7 7 7 7 7 6 6 6 6 6 5 5 4 3 2 2 1 1 2 3 5 4 4 4 4 5 4 4 5 5 4 5 5 5 5 4 4 7 7 5 5 12 12 9 4 4 9 10 10 8 4 5 4 4
4 6 3 5 4 7 7 9 12 13 12 11 13 13 12 12 10 7 8 7 6 6 7 8 8 8 8 8 7 8 8 7 7 6 7 6 6 6 6 6 6 7 6 5 5 5 3 2 2 2 2 2 2 2 3 3 3 4 4 4 4 5 5 7 3 3 5 7 4 4 5 5 5 4 5 9 15 16 12 9 9 9 10 9 7 7 6
5 4 5 4 5 7 11 14 12 11 8 9 12 12 11 11 11 10 9 9 7 7 6 5 6 9 9 9 9 7 8 8 8 7 7 7 7 6 5 6 6 6 6 5 5 4 3 2 2 1 1 2 2 2 3 3 3 4 4 4 4 5 5 4 4 3 5 4 5 5 4 4 4 6 2 7 6 7 7 8 8 9 10 10 8 8 9
5 8 8 7 7 8 10 11 11 8 4 10 12 13 13 12 12 11 10 10 8 9 9 9 6 8 10 10 8 8 8 8 8 8 8 7 6 5 5 6 6 6 5 4 4 3 3 2 2 1 0 1 0 1 1 2 2 3 3 3 4 5 3 1 3 3 4 4 4 4 5 4 4 3 0 6 6 5 3 0 2 7 10 9 9 7 7
6 7 9 10 9 9 8 8 7 6 11 12 12 12 12 12 9 10 10 10 9 9 10 11 9 6 7 8 7 8 9 8 8 7 6 6 6 5 5 6 6 5 5 5 4 3 3 3 2 1 1 1 2 1 1 2 1 3 1 1 2 2 3 2 2 3 4 4 4 4 4 3 3 1 2 5 8 8 7 7 5 2 5 8 10 8 9
9 9 10 12 11 8 5 7 9 12 13 13 13 12 13 11 8 7 8 10 10 11 9 8 8 6 5 6 7 7 8 9 7 6 6 6 6 6 6 6 6 6 6 5 5 4 3 3 2 2 2 3 2 2 2 2 1 1 2 2 4 3 2 3 4 3 3 2 3 3 2 1 2 3 2 4 7 9 8 7 6 7 8 7 6 7 8
7 6 6 9 10 9 10 11 11 12 13 12 12 12 12 11 9 8 9 10 7 7 7 9 9 9 8 7 7 7 8 8 7 7 6 7 6 6 7 7 7 6 5 5 4 3 2 2 1 2 3 2 1 0 1 1 1 3 3 3 3 3 3 4 4 2 0 1 2 2 1 1 0 1 1 2 3 2 1 2 2 2 2 2 5 6 11
7 6 5 7 8 10 11 11 11 11 12 12 11 10 11 11 11 10 9 10 10 7 7 7 7 8 8 8 7 7 7 7 8 8 7 7 7 7 7 6 5 5 4 4 3 3 2 2 1 2 2 1 0 1 1 1 2 2 2 2 3 2 3 2 1 0 0 1 1 0 1 2 2 3 4 4 4 5 3 2 2 1 2 3 2 5 4
6 8 9 10 10 11 12 12 12 12 11 12 12 11 11 11 11 10 9 11 10 9 8 7 6 6 7 7 7 7 7 7 8 8 8 7 6 6 6 5 4 4 3 3 2 1 1 1 1 2 2 1 1 1 1 1 1 2 1 2 3 2 1 3 2 2 2 2 3 3 4 4 4 4 5 6 6 6 4 4 5 4 4 4 3 4 5
10 11 12 13 13 12 12 12 11 12 12 11 11 12 11 10 11 10 10 9 5 6 6 6 6 6 5 4 5 5 7 8 8 8 7 7 6 6 5 3 2 2 2 2 2 2 2 2 2 2 2 2 1 1 0 1 1 2 3 2 4 7 8 6 1 2 3 3 5 4 6 5 6 5 6 7 6 5 4 3 4 4 4 4 4 5 6
12 12 13 12 12 12 12 10 11 11 11 12 13 13 11 10 10 11 10 10 10 9 6 7 8 8 6 6 6 6 6 7 7 7 8 7 6 5 4 3 3 3 3 3 2 2 2 2 2 3 1 1 1 1 1 0 1 1 2 2 2 3 3 2 3 3 5 5 6 6 6 7 6 6 6 7 6 6 4 4 4 4 5 4 5 5 6
11 12 12 11 11 13 14 13 14 15 15 15 13 12 11 10 10 10 10 10 11 10 9 8 6 7 7 7 7 6 7 7 7 7 7 7 6 6 4 4 4 3 3 3 3 3 3 3 3 3 2 3 2 2 1 1 1 2 3 2 3 4 5 2 6 6 6 6 5 6 5 5 5 5 5 5 5 4 3 3 3 4 4 4 5 5 6
10 10 11 12 11 12 13 15 14 15 15 14 14 13 12 11 10 9 8 8 8 6 8 8 9 9 8 8 7 6 6 6 6 6 6 7 6 6 6 5 5 4 4 4 3 3 4 4 3 3 3 3 3 2 2 1 3 3 3 3 4 5 5 5 4 5 6 6 6 6 6 5 5 4 4 4 4 3 3 2 3 3 3 3 4 5 6
9 10 11 12 12 14 14 14 14 14 16 15 14 13 12 9 8 8 7 7 8 7 9 10 9 9 9 8 7 6 6 6 7 7 7 6 6 6 5 5 5 5 5 4 4 3 4 4 2 3 3 3 3 3 3 3 4 5 4 4 5 5 5 6 5 5 6 6 6 5 5 4 4 3 2 1 2 3 2 1 1 2 3 3 4 4 4
11 10 10 10 11 14 15 15 15 16 15 14 13 12 11 9 7 7 6 7 6 6 8 9 9 8 8 8 7 7 7 8 8 7 7 7 6 6 6 6 6 6 5 4 3 3 2 5 6 6 2 3 2 4 4 3 5 5 5 4 5 5 5 4 5 5 5 5 4 3 2 4 3 3 2 2 2 2 2 2 1 2 2 2 2 3 3
11 11 10 11 12 14 16 15 14 14 13 12 11 10 8 6 5 5 4 6 7 8 9 9 9 8 7 7 7 8 8 7 7 7 7 7 7 7 7 6 5 5 4 4 2 2 3 5 4 1 0 2 3 5 3 4 4 5 5 5 5 5 6 5 5 5 5 4 4 5 6 5 4 4 3 2 2 2 1 2 2 2 2 2 2 3 3
12 12 12 12 12 14 15 15 14 13 13 13 11 8 6 5 5 6 6 7 8 8 8 9 10 9 9 8 7 7 7 7 9 8 8 8 7 7 6 5 3 2 2 3 2 3 4 4 3 2 2 2 3 5 5 4 2 3 3 3 3 3 4 5 5 5 5 4 4 4 4 3 3 3 3 3 2 2 2 3 3 3 3 3 4 4 3
12 12 12 12 12 13 13 13 13 12 12 12 9 6 6 7 9 9 9 8 8 8 9 10 10 10 8 7 6 6 7 7 8 8 8 7 6 6 6 5 4 3 3 3 4 5 4 3 3 4 3 4 4 6 5 3 4 2 3 3 3 4 4 4 4 4 4 4 4 3 3 3 3 3 3 3 2 3 3 3 4 4 3 3 2 2 2
10 10 11 12 11 11 12 11 10 8 8 7 7 7 8 10 11 12 11 10 8 8 9 9 10 9 9 8 6 5 5 5 6 7 8 8 8 8 7 6 6 5 5 4 5 5 3 2 3 4 3 3 3 4 4 2 1 3 3 2 2 3 2 3 4 4 4 3 4 3 3 4 3 3 4 5 5 4 5 5 4 4 3 3 3 2 2
11 11 10 10 11 11 11 10 9 7 6 4 4 7 8 8 9 10 11 11 10 9 10 10 10 10 9 8 6 5 5 4 6 7 7 7 7 6 6 6 5 5 5 4 5 5 2 3 4 4 3 3 4 2 4 2 3 1 1 1 3 3 3 3 2 3 3 3 3 3 3 4 4 4 4 4 4 4 5 4 4 4 3 4 3 3 2
11 11 10 10 10 9 8 7 7 6 4 5 6 9 10 10 9 10 9 8 8 7 7 6 6 7 7 9 10 8 6 6 7 7 6 5 5 5 6 7 6 6 9 9 7 6 5 4 2 1 3 3 4 4 4 1 1 1 3 2 2 3 2 2 3 2 2 2 2 2 3 3 4 4 4 4 4 4 4 4 4 4 3 3 3 3 3
8 8 6 6 6 6 6 5 3 3 4 6 7 8 9 10 11 9 8 7 6 7 7 7 8 8 8 8 9 9 8 8 8 7 7 5 3 2 5 7 7 7 7 4 4 3 2 3 3 4 6 4 4 3 4 2 1 2 2 2 2 2 3 2 1 2 3 2 3 3 3 3 3 4 4 4 4 3 4 4 4 4 4 3 2 2 2
8 7 5 4 4 4 4 2 3 5 6 6 6 8 8 7 7 8 8 8 7 7 7 7 6 5 7 9 9 8 8 8 8 7 7 7 6 7 7 6 6 7 8 5 4 4 3 4 5 8 9 7 4 2 3 0 1 1 1 2 3 3 2 3 3 4 4 3 4 4 3 3 3 3 3 4 4 4 4 3 3 3 4 3 3 3 2
6 4 4 2 3 4 3 2 3 4 4 4 5 5 6 6 6 6 7 7 7 7 7 7 7 7 7 7 7 7 7 7 7 7 8 8 8 7 7 8 8 7 5 4 3 3 5 6 8 9 7 5 2 3 2 0 1 0 1 2 3 3 3 3 3 4 3 4 3 3 3 3 3 2 3 3 2 4 4 4 4 3 3 3 3 3 3
6 1 1 2 1 3 5 5 3 3 4 4 3 3 3 4 4 5 5 5 6 6 6 7 8 8 8 8 8 8 8 7 7 7 5 5 6 7 7 7 6 6 8 7 4 5 7 12 11 9 7 5 3 2 1 0 1 1 2 3 3 3 4 3 3 4 4 4 4 3 4 3 3 4 3 3 4 3 3 3 3 3 3 3 3 3 2
1 1 2 3 2 1 1 1 1 1 3 4 4 4 2 2 2 3 4 5 5 6 7 7 8 7 7 8 9 9 8 8 8 6 6 6 7 8 8 8 9 11 9 6 6 6 8 9 10 10 7 4 4 0 1 0 0 1 1 2 3 4 4 3 4 4 4 4 4 4 3 2 3 2 2 1 1 2 4 3 4 4 3 3 3 4 4
2 3 4 3 3 3 3 3 3 3 3 2 3 4 5 5 5 6 6 5 5 6 6 6 6 6 7 8 8 7 7 8 8 7 7 7 8 8 8 7 8 9 7 6 6 9 13 12 12 10 8 6 4 1 0 1 0 0 1 2 3 4 3 3 5 4 5 4 4 4 5 5 4 4 3 4 3 3 3 4 5 5 4 5 5 5 5
1 2 2 3 4 6 6 3 2 1 2 4 5 4 4 5 5 4 4 4 5 4 5 5 5 6 7 7 7 6 6 5 5 7 7 7 8 8 7 9 12 11 7 4 5 6 10 11 10 9 8 6 2 1 0 1 1 0 1 2 4 3 3 4 4 5 4 5 5 5 4 3 3 3 3 2 2 2 2 3 2 3 4 4 4 4 5
4 3 2 7 7 5 5 6 7 4 4 3 3 4 4 4 4 4 4 4 4 3 4 5 5 5 5 6 6 5 6 6 5 7 7 7 7 7 7 7 8 11 9 2 5 8 12 12 10 10 7 4 2 1 1 0 1 2 1 2 4 3 2 2 2 1 4 3 3 3 3 3 3 1 0 2 2 2 3 3 4 6 10 3 4 4 5
8 6 4 5 5 5 6 6 5 3 2 3 3 3 4 3 3 4 4 4 4 5 4 5 5 6 6 6 6 6 6 6 5 7 7 7 7 6 7 7 8 8 6 3 3 6 8 7 7 6 5 3 1 2 1 2 3 2 3 4 3 4 4 3 5 5 5 4 4 3 3 3 2 3 4 3 3 3 3 4 4 4 6 7 5 5 5
7 6 5 5 6 5 4 4 3 3 2 1 2 2 2 1 3 4 4 4 4 4 4 4 5 5 6 6 6 6 6 7 6 7 7 7 7 6 5 4 5 6 6 5 4 4 5 6 5 5 4 3 4 1 4 3 4 3 3 3 4 5 4 5 5 5 5 4 5 4 3 3 4 5 4 3 4 4 4 4 5 5 5 5 4 4 4
Wind_Direction
218 234 228 191 220 234 235 228 210 201 197 199 214 216 207 175 243 264 95 192 229 264 282 298 282 291 288 284 287 291 290 261 223 209 206 200 197 192 191 190 188 185 182 177 173 172 173 172 177 178 178 180 188 197 209 211 214 211 214 216 222 231 233 237 239 243 249 250 251 255 258 264 276 283 290 293 292 292 293 294 295 297 299 298 292 287 283
210 195 215 205 230 220 229 228 211 201 196 200 212 218 214 224 235 266 199 181 250 276 290 293 294 295 289 290 291 279 260 252 237 218 212 207 201 197 195 193 191 188 182 174 173 169 171 172 175 177 174 179 188 198 205 207 210 211 212 215 224 229 234 235 237 241 242 244 247 253 263 274 283 284 289 294 294 295 298 296 294 294 296 292 288 288 288
195 179 179 203 221 211 219 209 202 199 199 205 210 224 189 212 244 252 261 267 274 280 289 262 279 283 282 271 268 270 274 262 242 232 224 215 208 204 198 193 191 188 184 176 171 170 171 172 173 171 178 184 194 208 209 209 204 209 212 216 221 226 230 236 239 240 240 242 247 257 265 272 277 283 291 293 290 295 299 295 293 293 289 289 293 296 300
187 175 190 181 201 210 202 187 189 187 189 198 183 210 182 213 224 230 248 259 268 271 257 276 282 274 256 258 259 265 271 262 251 240 235 224 216 207 199 194 190 187 185 179 174 171 169 167 171 175 178 187 195 207 207 210 210 207 212 217 221 223 230 234 237 239 242 246 254 264 270 272 276 285 287 291 293 296 298 295 292 293 294 293 291 291 292
210 157 192 180 188 201 207 198 193 191 195 212 202 204 181 218 243 243 249 263 285 337 322 291 289 286 281 274 269 268 268 266 259 250 239 232 219 209 197 192 191 191 187 181 175 168 161 164 177 179 181 189 199 201 203 203 207 215 212 216 218 225 231 236 239 242 246 254 261 268 273 277 279 281 289 294 298 301 301 301 295 291 295 292 294 293 286
172 160 182 186 207 224 225 204 211 199 211 202 206 207 202 203 205 250 274 288 305 289 282 278 280 284 295 300 293 278 270 265 244 244 240 234 222 210 203 198 194 191 188 178 168 162 164 174 178 185 191 196 199 198 201 200 209 214 215 217 221 225 231 235 240 246 251 259 264 270 273 277 278 279 289 298 303 304 301 296 293 294 296 299 295 288 288
207 153 168 215 229 239 73 104 64 125 219 209 225 225 208 202 207 239 255 258 263 271 277 279 281 288 297 290 277 266 243 232 240 238 233 224 217 211 204 201 196 188 182 166 159 163 168 175 180 183 190 198 194 197 201 204 208 210 212 218 219 226 233 236 241 247 255 263 268 273 273 273 273 279 293 294 299 305 307 306 301 300 301 300 296 289 287
151 193 213 233 240 77 130 98 102 86 107 110 210 226 200 223 237 234 245 259 269 274 274 275 282 291 292 286 265 244 237 227 228 230 223 210 207 207 204 196 192 179 171 164 162 159 166 173 182 187 193 196 201 202 201 207 207 209 211 216 221 226 232 237 242 249 258 268 272 274 273 271 270 276 282 290 298 301 301 306 304 300 296 298 297 291 290
231 227 227 236 88 164 139 147 188 177 179 177 203 241 229 209 229 244 254 259 265 270 271 271 265 279 283 274 254 195 204 206 219 222 214 197 196 198 194 190 183 173 165 162 159 158 168 179 185 193 197 197 201 203 203 208 209 210 214 216 220 223 231 237 247 256 264 273 279 277 271 265 265 271 282 286 286 293 296 303 305 305 312 308 308 300 295
235 235 235 237 235 249 211 191 185 201 193 199 177 247 261 200 250 263 260 255 257 260 258 228 213 225 264 268 210 139 156 169 188 198 199 181 178 183 180 176 171 165 164 164 160 173 181 185 191 196 196 197 198 203 208 208 209 210 215 217 216 224 230 237 248 256 263 270 273 274 265 265 262 268 278 277 290 304 304 310 312 325 323 337 334 324 316
218 231 240 237 251 245 264 186 145 169 142 152 110 238 265 228 239 237 258 255 247 254 260 185 188 236 257 253 101 129 131 158 162 168 171 169 163 170 172 174 168 165 165 170 178 187 185 188 194 197 196 197 199 204 207 211 211 212 215 215 216 220 227 237 247 257 264 263 263 264 265 263 266 273 287 316 342 338 333 327 335 329 332 334 323 326 319
220 237 238 247 236 267 132 105 116 117 149 121 197 258 265 136 197 304 249 249 249 249 235 197 214 240 245 274 78 103 131 142 141 149 155 157 148 163 162 167 163 162 164 175 187 185 190 199 200 199 196 198 204 209 209 211 214 216 216 213 216 221 230 239 247 254 252 251 251 259 263 261 262 280 73 229 258 281 282 288 297 310 315 324 321 336 324
220 220 250 252 244 130 100 94 116 122 141 192 246 254 282 43 323 311 260 253 256 249 214 205 242 221 282 60 109 128 124 129 129 134 143 147 150 152 161 157 163 165 177 188 190 194 199 206 206 203 199 200 206 208 212 215 220 220 214 215 220 223 226 237 246 243 245 249 255 259 259 263 268 211 220 244 238 235 263 275 290 299 309 308 314 301 280
230 230 240 242 256 68 75 100 125 144 184 231 254 19 22 6 355 11 270 283 279 261 228 220 245 255 129 118 132 144 144 137 132 138 136 141 150 151 154 151 166 173 187 196 209 211 213 216 214 202 199 199 202 203 210 221 221 218 215 218 220 216 221 237 239 245 252 258 258 265 267 242 235 221 215 219 237 249 263 270 271 290 298 304 301 297 300
249 237 246 242 245 118 204 122 131 133 253 304 28 350 353 18 352 339 317 287 291 271 243 230 237 243 173 159 154 147 134 138 144 148 141 140 147 147 147 155 177 183 188 205 215 222 217 208 193 196 195 201 205 204 216 223 226 222 217 213 205 207 217 226 233 247 255 256 257 246 242 235 235 220 209 227 247 249 260 274 285 287 291 296 296 300 307
246 229 233 253 37 93 89 282 276 138 312 28 339 340 311 327 324 320 307 298 291 282 274 258 215 206 161 151 149 145 137 138 137 139 139 138 137 149 181 178 181 197 208 218 226 232 235 214 190 189 196 204 210 214 223 222 221 211 199 184 178 185 210 227 234 252 264 264 251 244 238 237 227 230 230 238 247 250 258 276 286 289 287 286 292 298 310
246 283 324 91 132 2 341 307 316 311 320 314 319 304 298 297 294 299 289 294 286 255 251 241 211 187 195 175 171 153 139 136 141 141 147 147 149 149 163 160 162 188 207 214 225 218 186 164 172 191 204 219 217 225 225 216 205 198 180 165 161 192 215 224 228 233 253 265 259 250 241 230 224 225 234 239 249 237 249 265 268 277 279 283 288 292 303
21 191 32 319 68 35 10 19 18 346 345 346 331 318 304 292 289 285 278 279 284 252 221 225 199 196 174 157 151 134 129 126 121 126 132 135 136 134 137 134 140 177 184 212 215 222 207 204 204 209 222 227 235 236 230 212 191 182 172 161 174 204 212 209 197 193 244 256 253 253 247 237 229 231 241 241 247 243 254 267 273 273 279 282 286 290 300
269 189 112 19 18 2 37 52 39 8 2 348 340 315 295 293 294 291 285 279 271 247 215 212 194 175 167 157 135 127 131 135 139 143 142 140 148 149 150 118 128 155 215 235 243 252 253 231 232 231 226 228 235 236 231 213 190 165 158 167 179 186 195 183 153 157 236 288 298 254 232 237 239 238 239 243 245 251 260 268 272 274 278 281 284 293 296
236 60 103 1 332 319 105 60 31 15 360 343 335 321 298 285 287 286 288 271 240 212 201 195 185 168 166 154 145 149 148 142 143 139 137 132 125 109 101 117 138 168 194 237 252 269 305 20 267 287 270 245 227 229 208 219 188 153 160 164 190 195 165 159 178 179 210 166 231 263 242 247 265 257 248 248 250 252 268 275 272 277 282 289 298 303 314
244 296 199 357 314 238 162 82 33 11 353 339 330 328 316 297 284 277 262 245 232 205 192 183 183 171 162 164 165 164 146 144 145 142 135 129 124 127 134 130 141 120 107 89 73 63 72 57 28 1 283 280 234 165 183 140 141 174 172 154 162 166 172 191 197 206 247 237 240 245 263 252 253 300 337 303 298 324 51 11 15 310 292 295 318 336 321
233 269 34 9 264 217 163 351 1 350 343 340 333 326 320 312 298 284 259 232 223 202 184 181 186 170 163 168 181 170 153 149 135 126 122 120 117 113 109 113 108 101 87 78 74 73 77 56 69 98 122 189 228 223 185 166 173 179 157 165 195 205 209 221 238 234 239 273 275 261 278 287 271 98 55 41 6 310 105 69 59 46 36 41 16 356 333
248 37 39 61 333 296 304 331 337 332 337 343 344 340 326 316 306 285 262 225 186 191 181 192 186 165 158 170 180 168 147 120 108 104 110 113 110 104 109 105 93 85 85 83 86 87 81 88 113 130 154 156 176 166 134 176 185 174 173 191 220 247 242 265 302 309 290 284 268 260 274 283 282 260 127 55 32 40 71 88 80 80 76 76 61 24 1
308 1 33 5 342 313 313 315 318 320 336 337 339 341 336 319 309 298 276 256 202 180 173 186 199 174 168 168 179 156 118 120 112 107 100 98 98 102 100 96 97 95 92 92 93 91 95 113 112 159 170 158 162 190 161 182 184 184 196 207 234 261 266 257 125 240 271 273 278 276 267 270 263 267 185 110 83 31 33 77 96 100 101 101 97 87 59
317 344 322 329 312 302 295 296 303 303 333 349 338 331 331 324 311 304 281 267 242 189 176 179 176 179 169 167 164 140 131 119 114 108 103 94 89 99 110 111 111 109 108 108 113 117 119 107 103 92 74 72 11 293 161 194 207 189 195 233 266 270 265 244 254 226 253 255 258 267 277 269 266 262 160 142 154 144 127 213 63 118 126 125 125 122 117
307 313 312 306 296 285 283 286 290 324 339 334 327 322 320 312 302 290 282 265 242 212 189 180 167 159 166 153 141 131 125 124 119 126 128 133 134 135 135 127 121 124 126 123 115 114 108 94 86 88 112 175 101 97 173 117 126 120 157 168 245 265 273 268 280 269 262 258 258 261 260 286 288 282 190 191 193 161 157 146 144 102 105 119 132 129 104
304 305 302 297 288 289 320 328 317 321 320 320 315 315 311 313 308 285 272 269 232 215 195 179 160 139 137 137 135 136 133 125 130 138 140 148 153 143 129 120 126 127 127 120 112 98 96 107 119 107 91 67 81 86 86 91 101 163 221 234 245 158 173 271 257 239 267 285 280 287 298 274 268 236 207 151 185 185 181 188 183 166 152 123 103 94 74
283 282 284 286 296 306 311 312 314 309 307 309 312 310 314 310 292 280 262 253 237 207 191 180 160 157 152 147 145 136 136 149 152 148 150 150 126 118 121 127 131 134 123 123 118 122 132 129 127 125 103 88 88 185 155 184 218 245 250 259 250 250 173 192 224 234 266 284 303 281 231 249 18 331 78 129 134 106 117 176 216 164 135 86 114 118 99
276 276 286 294 300 303 301 299 294 293 295 297 300 304 303 301 299 283 262 251 234 209 191 178 169 167 164 157 170 163 166 163 153 148 126 112 117 122 128 131 135 128 128 127 126 139 157 160 162 132 107 77 278 335 270 246 256 256 261 255 250 230 216 172 182 177 194 291 248 130 92 113 131 126 113 106 103 110 106 89 122 101 80 47 107 140 98
308 317 306 296 294 292 293 292 296 300 298 299 300 297 295 295 291 281 264 250 242 229 207 176 166 174 184 173 170 179 175 152 131 122 123 122 115 116 115 121 130 126 137 143 141 152 161 150 138 133 122 194 176 194 213 190 186 104 80 24 0 357 178 144 163 166 176 159 115 124 152 135 128 124 113 87 78 66 58 54 28 34 42 58 37 25 10
301 300 297 296 295 295 291 293 294 293 294 295 294 294 292 287 281 279 274 261 252 245 206 170 163 207 194 157 125 105 108 113 114 113 107 107 110 112 121 137 184 178 167 131 146 153 132 122 115 90 40 336 12 346 322 255 197 161 140 98 82 44 19 16 59 172 142 141 150 145 120 122 114 110 101 100 95 92 82 66 64 56 59 48 36 28 17
298 295 297 299 296 294 296 298 297 296 295 296 294 290 291 287 287 280 270 255 237 228 206 181 167 159 138 110 109 112 109 107 105 103 103 101 100 98 97 103 84 72 91 110 120 113 128 126 96 80 53 40 29 351 329 232 241 146 71 81 116 134 110 261 145 107 133 134 133 132 132 126 120 114 114 107 101 94 82 66 59 51 48 44 43 33 22
293 293 288 295 304 307 307 307 303 299 298 294 291 293 289 280 277 279 281 273 254 214 199 185 163 138 122 124 123 123 121 113 109 108 106 103 104 105 109 99 103 107 105 100 104 102 91 85 80 70 67 64 48 49 2 90 129 109 119 125 110 105 127 108 87 128 124 130 123 118 119 120 124 118 101 97 90 91 99 100 96 82 64 56 55 44 35
290 294 299 301 299 300 302 301 300 296 291 285 284 282 280 274 268 267 269 273 272 220 186 164 145 138 134 128 131 143 143 136 121 115 114 113 110 115 119 124 124 126 126 128 121 97 98 98 86 76 62 74 81 70 45 93 100 96 104 114 118 128 133 133 133 124 118 117 115 119 131 126 113 106 105 97 103 99 92 101 84 82 93 86 76 68 44
290 290 291 292 294 293 293 293 293 292 290 286 281 278 276 273 266 264 262 260 254 210 166 156 148 149 142 142 147 147 134 122 118 118 120 120 120 125 125 123 126 133 127 116 108 100 87 84 71 98 87 59 49 52 79 56 74 95 104 118 123 131 134 130 127 132 133 131 138 147 149 143 129 117 122 136 121 130 121 74 86 111 123 123 104 92 75
291 296 298 297 296 296 296 295 293 289 287 284 279 275 275 276 271 268 246 235 218 172 148 147 153 151 136 132 135 130 124 119 118 119 118 121 130 132 136 136 136 133 120 105 101 105 108 81 56 5 3 57 67 68 37 41 103 100 113 121 127 130 125 128 130 135 144 150 148 139 103 85 92 102 99 94 79 60 83 109 119 118 129 124 119 117 109
288 287 292 298 300 300 299 296 290 285 279 274 271 269 267 266 266 253 214 181 161 156 148 142 129 124 119 118 117 112 114 120 119 120 127 138 143 146 142 142 147 147 160 130 99 76 74 59 64 325 29 110 99 85 70 353 125 124 141 143 143 144 148 149 148 148 146 144 136 128 138 159 155 132 135 113 107 100 101 118 114 113 105 96 111 108 97
291 290 293 297 300 301 298 296 293 283 273 263 255 246 236 223 198 177 177 158 144 137 129 117 114 106 104 101 105 116 121 125 126 131 146 147 146 139 138 136 134 167 160 96 91 67 65 83 113 111 105 112 113 110 90 18 301 176 152 156 150 150 146 136 141 143 150 138 138 148 165 147 141 146 135 137 128 130 125 123 137 141 125 130 127 127 129
292 290 289 293 298 302 302 299 291 276 264 257 241 203 183 167 153 154 146 135 120 113 107 104 106 103 102 110 115 121 130 135 137 145 146 145 136 118 95 80 81 79 113 137 118 106 130 141 123 115 117 114 112 105 101 60 334 105 123 132 147 143 140 144 138 134 131 143 160 143 141 134 139 135 132 114 114 126 132 140 153 154 155 148 150 144 150
296 291 289 294 299 302 299 296 290 284 273 243 192 166 156 157 157 145 131 123 121 122 118 119 117 116 114 113 122 129 138 143 143 144 139 135 126 124 126 115 115 116 117 122 117 92 93 225 133 108 126 134 133 119 96 59 234 149 165 172 152 141 133 130 151 150 146 145 127 152 142 140 136 132 124 128 135 139 142 152 157 152 143 143 153 148 161
291 292 291 290 294 300 301 297 286 270 258 233 190 156 157 154 142 132 129 126 125 122 119 118 116 115 122 129 124 120 128 142 147 141 143 146 147 155 146 127 134 134 140 111 104 119 202 244 120 146 135 145 120 114 134 164 233 205 264 197 222 187 190 205 206 194 181 161 164 189 157 141 141 153 148 149 140 149 158 163 159 155 161 164 167 170 185
293 293 290 289 294 299 295 276 262 248 226 207 176 154 146 134 117 105 99 96 97 94 94 100 105 124 138 134 128 131 149 153 145 146 148 148 156 159 145 138 142 111 95 105 123 139 139 124 110 97 124 119 105 49 7 234 268 233 225 218 226 236 236 187 219 238 216 207 176 154 150 160 143 132 135 137 147 158 157 160 166 167 173 184 171 169 167
295 288 290 294 296 298 291 277 252 204 178 162 150 139 125 112 105 105 101 101 106 110 111 113 120 127 135 130 136 147 155 155 149 141 130 113 103 128 142 132 131 126 154 150 149 141 133 140 133 87 54 57 77 89 257 261 193 183 174 180 178 164 170 227 231 197 212 193 169 157 155 157 159 151 153 152 144 153 163 166 172 168 170 190 161 170 156
282 272 272 302 324 320 281 200 158 164 153 141 135 129 119 111 113 118 125 131 136 128 125 125 120 142 154 154 156 155 157 156 155 155 148 139 128 121 140 144 138 146 161 159 187 154 148 108 94 97 94 85 89 303 280 271 233 197 196 178 185 187 156 182 202 220 213 201 206 201 196 187 191 162 153 143 163 163 169 171 166 168 172 173 175 175 186
252 261 276 5 351 347 7 22 106 106 97 113 125 114 116 112 112 119 131 139 133 126 128 133 154 175 172 170 165 161 161 164 165 163 164 156 157 151 148 137 143 149 150 156 135 122 113 105 105 107 101 97 76 282 275 95 272 224 214 209 212 218 204 217 200 227 200 215 210 198 184 205 193 175 175 147 148 166 176 181 177 175 186 185 179 189 185
220 186 10 27 5 356 6 11 29 87 96 96 97 65 58 78 114 129 145 150 143 142 145 158 174 179 179 166 151 155 156 161 160 169 163 169 160 148 154 157 144 133 149 181 140 126 110 117 124 129 136 155 196 215 93 41 256 211 224 235 222 191 219 213 200 219 198 205 192 205 192 202 186 194 185 177 175 185 160 170 182 185 190 194 190 198 190
36 73 295 259 250 96 83 275 240 142 154 157 154 149 149 155 156 154 163 156 155 156 169 176 174 175 177 167 156 160 160 160 163 170 166 143 129 141 144 142 125 138 170 173 144 144 137 146 145 146 148 150 245 279 82 145 311 277 227 234 226 226 220 186 208 195 192 195 194 197 209 229 202 183 162 165 157 212 153 181 212 186 189 195 202 198 205
232 229 227 230 211 177 202 203 201 180 174 204 161 167 174 179 172 163 164 159 158 169 172 172 174 169 170 172 170 177 175 172 165 165 174 157 152 142 156 168 156 169 176 126 124 128 140 143 144 149 152 177 204 121 117 79 344 295 229 213 234 226 221 190 197 189 190 185 184 203 198 199 202 209 178 200 193 190 179 186 196 200 194 197 198 198 202
184 203 220 234 221 190 188 196 142 97 185 194 186 174 159 160 154 157 157 156 158 163 163 162 159 164 172 172 173 177 169 184 185 163 167 158 158 159 159 139 147 166 189 165 163 147 136 135 150 157 179 218 221 115 329 82 56 20 230 202 209 202 194 183 192 189 195 187 200 204 203 200 189 194 195 206 200 188 194 209 213 217 211 206 197 203 205
11 6 214 211 187 191 156 176 191 172 132 140 128 126 147 158 165 160 164 179 173 165 161 162 166 161 169 173 181 180 168 175 180 153 167 169 171 174 163 167 166 188 220 203 166 135 141 154 165 176 200 207 171 183 120 227 221 219 201 222 255 185 129 103 94 171 204 198 201 193 194 202 175 85 312 199 186 208 183 185 204 65 31 329 216 196 203
177 185 117 79 69 65 41 32 42 44 70 90 109 130 157 193 151 162 181 181 174 186 188 161 178 175 180 177 182 177 173 177 174 163 173 172 188 180 181 175 167 179 193 207 197 149 157 179 189 188 208 239 215 260 256 187 240 158 222 221 203 216 160 177 192 198 211 209 194 190 197 185 169 188 202 197 178 201 198 197 206 184 193 212 219 206 209
61 61 62 54 52 48 54 61 45 49 73 122 103 146 175 150 153 174 153 187 207 186 195 175 183 180 193 186 187 186 190 188 181 171 186 180 193 187 174 150 157 178 194 213 231 212 193 194 186 210 257 260 273 269 128 137 258 254 218 221 213 213 196 202 208 213 197 183 231 203 169 223 194 192 204 208 205 205 203 211 214 206 194 211 208 214 215